Location: Taupo
(38.6830°S, 176.0830°E)
Time: 11:38:53
(UTC+13:00)

Cosmos 1844 Rocket - Pass Details

Date: 24 January 2019
Orbit: 824 x 845 km, 71.0° (Epoch: 18 February)

Event Time Altitude Azimuth Distance (km) Brightness Sun altitude
Rises 22:53:25 0° 197° (SSW) 3,406 7.0 -21.7°
Reaches altitude 10° 22:55:59 10° 191° (S) 2,469 6.0 -22.1°
Maximum altitude 23:01:26 46° 117° (ESE) 1,120 3.2 -22.7°
Enters shadow 23:02:36 40° 84° (E) 1,217 3.2 -22.9°
